Wetterdaten: Mittwoch, 03.01.2018
Datum Zeit Temp. A. Aussen2m Boden Feuchte A. Feuchte 2 Luftdruck Regen Wind Richtung Richtung Sonnenschein
03.01.2018 00:00 6,6 C 6,5 C 5,1 C 98 % 94 % 998,8 hPa 0,3 l/m 21,8 km/h (4 Bft) SO 130 0 min
03.01.2018 00:05 6,6 C 6,6 C 5,1 C 98 % 94 % 998,8 hPa 0,3 l/m 21,8 km/h (4 Bft) S-SO 150 0 min
03.01.2018 00:10 6,6 C 6,6 C 5,1 C 98 % 94 % 998,8 hPa 0,3 l/m 21,8 km/h (4 Bft) SO 135 0 min
03.01.2018 00:15 6,6 C 6,7 C 5,1 C 99 % 94 % 998,8 hPa 0,0 l/m 15,1 km/h (3 Bft) S-SO 160 0 min
03.01.2018 00:20 6,7 C 6,7 C 5,1 C 99 % 94 % 998,8 hPa 0,3 l/m 15,7 km/h (3 Bft) SO 145 0 min
03.01.2018 00:25 6,7 C 6,7 C 5,1 C 99 % 94 % 997,8 hPa 0,3 l/m 15,7 km/h (3 Bft) S-SO 160 0 min
03.01.2018 00:30 6,7 C 6,7 C 5,1 C 99 % 95 % 997,8 hPa 0,3 l/m 16,9 km/h (3 Bft) SO 130 0 min
03.01.2018 00:35 6,7 C 6,7 C 5,1 C 99 % 95 % 997,8 hPa 0,0 l/m 17,6 km/h (3 Bft) S-SO 155 0 min
03.01.2018 00:40 6,7 C 6,7 C 5,1 C 99 % 95 % 997,8 hPa 0,0 l/m 17,6 km/h (3 Bft) SO 145 0 min
03.01.2018 00:45 6,8 C 6,7 C 5,1 C 99 % 95 % 997,8 hPa 0,3 l/m 16,9 km/h (3 Bft) SO 130 0 min
03.01.2018 00:50 6,9 C 6,8 C 5,1 C 99 % 95 % 997,8 hPa 0,0 l/m 20,0 km/h (4 Bft) SO 145 0 min
03.01.2018 00:55 6,9 C 6,9 C 5,1 C 99 % 95 % 996,8 hPa 0,0 l/m 17,6 km/h (3 Bft) S 170 0 min
03.01.2018 01:00 7,0 C 6,9 C 5,1 C 99 % 95 % 996,8 hPa 0,0 l/m 16,3 km/h (3 Bft) SO 145 0 min
03.01.2018 01:05 7,0 C 7,0 C 5,1 C 99 % 95 % 996,8 hPa 0,3 l/m 12,7 km/h (3 Bft) SO 135 0 min
03.01.2018 01:10 7,1 C 7,0 C 5,1 C 99 % 95 % 995,8 hPa 0,0 l/m 14,5 km/h (3 Bft) S-SO 160 0 min
03.01.2018 01:15 7,2 C 7,1 C 5,1 C 99 % 95 % 995,8 hPa 0,0 l/m 19,4 km/h (3 Bft) S-SO 155 0 min
03.01.2018 01:20 7,2 C 7,1 C 5,1 C 99 % 95 % 995,8 hPa 0,0 l/m 15,7 km/h (3 Bft) S-SO 165 0 min
03.01.2018 01:25 7,2 C 7,1 C 5,1 C 99 % 95 % 995,8 hPa 0,0 l/m 20,0 km/h (4 Bft) S-SO 160 0 min
03.01.2018 01:30 7,4 C 7,2 C 5,1 C 99 % 95 % 995,8 hPa 0,0 l/m 18,2 km/h (3 Bft) SW 235 0 min
03.01.2018 01:35 7,4 C 7,3 C 5,1 C 99 % 95 % 995,8 hPa 0,0 l/m 27,1 km/h (5 Bft) S-SO 155 0 min
03.01.2018 01:40 7,7 C 7,4 C 5,1 C 98 % 95 % 994,7 hPa 0,0 l/m 20,6 km/h (4 Bft) SO 145 0 min
03.01.2018 01:45 7,7 C 7,5 C 5,1 C 98 % 95 % 994,7 hPa 0,0 l/m 19,4 km/h (3 Bft) SO 135 0 min
03.01.2018 01:50 7,7 C 7,6 C 5,1 C 98 % 95 % 994,7 hPa 0,0 l/m 19,4 km/h (3 Bft) S 180 0 min
03.01.2018 01:55 7,7 C 7,6 C 5,1 C 97 % 95 % 993,7 hPa 0,0 l/m 25,4 km/h (4 Bft) SW 215 0 min
03.01.2018 02:00 7,6 C 7,6 C 5,1 C 97 % 95 % 993,7 hPa 0,3 l/m 31,3 km/h (5 Bft) S-SO 160 0 min
03.01.2018 02:05 7,7 C 7,6 C 5,1 C 97 % 95 % 993,7 hPa 0,0 l/m 25,4 km/h (4 Bft) S-SO 155 0 min
03.01.2018 02:10 7,8 C 7,6 C 5,1 C 97 % 94 % 991,7 hPa 0,0 l/m 27,1 km/h (5 Bft) S-SO 150 0 min
03.01.2018 02:15 7,8 C 7,7 C 5,1 C 97 % 94 % 991,7 hPa 0,0 l/m 27,1 km/h (5 Bft) S-SO 150 0 min
03.01.2018 02:20 7,9 C 7,7 C 5,1 C 96 % 94 % 991,7 hPa 0,0 l/m 28,2 km/h (5 Bft) S-SO 165 0 min
03.01.2018 02:25 7,9 C 7,8 C 5,1 C 96 % 94 % 991,7 hPa 0,0 l/m 32,5 km/h (5 Bft) S 180 0 min
03.01.2018 02:30 8,0 C 7,9 C 5,1 C 96 % 94 % 991,7 hPa 0,3 l/m 31,3 km/h (5 Bft) S 170 0 min
03.01.2018 02:35 8,1 C 7,9 C 5,1 C 96 % 94 % 991,7 hPa 0,0 l/m 29,4 km/h (5 Bft) S-SO 160 0 min
03.01.2018 02:40 8,1 C 8,0 C 5,1 C 96 % 93 % 990,7 hPa 0,0 l/m 29,4 km/h (5 Bft) S-SO 160 0 min
03.01.2018 02:45 8,2 C 8,0 C 5,1 C 95 % 93 % 990,7 hPa 0,0 l/m 32,1 km/h (5 Bft) S 180 0 min
03.01.2018 02:50 8,1 C 8,0 C 5,1 C 96 % 93 % 990,7 hPa 0,6 l/m 36,4 km/h (5 Bft) SO 140 0 min
03.01.2018 02:55 8,1 C 8,0 C 5,1 C 96 % 93 % 989,7 hPa 0,0 l/m 36,8 km/h (5 Bft) S 170 0 min
03.01.2018 03:00 8,1 C 8,0 C 5,1 C 97 % 94 % 989,7 hPa 0,0 l/m 28,2 km/h (5 Bft) S 180 0 min
03.01.2018 03:05 8,2 C 8,1 C 5,1 C 97 % 94 % 989,7 hPa 0,3 l/m 34,0 km/h (5 Bft) S 170 0 min
03.01.2018 03:10 8,3 C 8,2 C 5,1 C 96 % 94 % 989,7 hPa 0,3 l/m 34,4 km/h (5 Bft) S-SO 160 0 min
03.01.2018 03:15 8,3 C 8,2 C 5,1 C 97 % 94 % 989,7 hPa 0,6 l/m 36,0 km/h (5 Bft) S 175 0 min
03.01.2018 03:20 8,3 C 8,2 C 5,1 C 97 % 94 % 989,7 hPa 0,3 l/m 32,1 km/h (5 Bft) S-SO 155 0 min
03.01.2018 03:25 8,3 C 8,2 C 5,1 C 97 % 94 % 987,7 hPa 0,6 l/m 36,0 km/h (5 Bft) SO 130 0 min
03.01.2018 03:30 8,2 C 8,2 C 5,1 C 98 % 94 % 987,7 hPa 0,6 l/m 29,4 km/h (5 Bft) S 170 0 min
03.01.2018 03:35 8,2 C 8,2 C 5,1 C 98 % 95 % 987,7 hPa 0,3 l/m 32,5 km/h (5 Bft) S-SO 155 0 min
03.01.2018 03:40 8,2 C 8,2 C 5,1 C 98 % 95 % 986,7 hPa 0,6 l/m 32,9 km/h (5 Bft) S-SO 160 0 min
03.01.2018 03:45 8,3 C 8,2 C 5,1 C 99 % 95 % 986,7 hPa 0,6 l/m 33,7 km/h (5 Bft) S-SO 165 0 min
03.01.2018 03:50 8,3 C 8,2 C 5,1 C 99 % 95 % 986,7 hPa 0,0 l/m 31,7 km/h (5 Bft) SO 145 0 min
03.01.2018 03:55 8,4 C 8,3 C 5,1 C 99 % 95 % 986,7 hPa 0,0 l/m 29,4 km/h (5 Bft) S 190 0 min
03.01.2018 04:00 8,4 C 8,3 C 5,1 C 99 % 95 % 986,7 hPa 0,0 l/m 29,4 km/h (5 Bft) S 190 0 min
03.01.2018 04:05 8,4 C 8,3 C 5,1 C 99 % 95 % 986,7 hPa 0,3 l/m 31,7 km/h (5 Bft) S 170 0 min
03.01.2018 04:10 8,4 C 8,3 C 5,1 C 99 % 95 % 985,7 hPa 0,0 l/m 31,7 km/h (5 Bft) S 180 0 min
03.01.2018 04:15 8,5 C 8,4 C 5,1 C 99 % 95 % 985,7 hPa 0,0 l/m 29,8 km/h (5 Bft) S 170 0 min
03.01.2018 04:20 8,6 C 8,4 C 5,1 C 99 % 96 % 985,7 hPa 0,0 l/m 26,3 km/h (4 Bft) S-SO 165 0 min
03.01.2018 04:25 8,6 C 8,5 C 5,1 C 99 % 96 % 984,7 hPa 0,0 l/m 18,8 km/h (3 Bft) S-SO 155 0 min
03.01.2018 04:30 8,6 C 8,5 C 5,1 C 99 % 96 % 984,7 hPa 0,0 l/m 18,8 km/h (3 Bft) S-SO 155 0 min
03.01.2018 04:35 8,7 C 8,6 C 5,1 C 99 % 96 % 984,7 hPa 1,2 l/m 23,6 km/h (4 Bft) S 170 0 min
03.01.2018 04:40 8,7 C 8,7 C 5,1 C 99 % 96 % 983,7 hPa 0,3 l/m 20,0 km/h (4 Bft) S 180 0 min
03.01.2018 04:45 9,8 C 8,7 C 5,1 C 99 % 96 % 983,7 hPa 0,6 l/m 20,6 km/h (4 Bft) S-SW 205 0 min
03.01.2018 04:50 9,8 C 9,4 C 5,1 C 99 % 96 % 983,7 hPa 0,0 l/m 20,6 km/h (4 Bft) S-SW 205 0 min
03.01.2018 04:55 10,7 C 9,6 C 5,1 C 97 % 96 % 983,7 hPa 0,6 l/m 32,5 km/h (5 Bft) S-SW 210 0 min
03.01.2018 05:00 10,7 C 10,1 C 5,1 C 97 % 97 % 983,7 hPa 0,0 l/m 32,5 km/h (5 Bft) S-SW 210 0 min
03.01.2018 05:05 11,0 C 10,3 C 5,1 C 96 % 96 % 983,7 hPa 0,6 l/m 34,0 km/h (5 Bft) S 175 0 min
03.01.2018 05:10 11,2 C 10,6 C 5,1 C 96 % 96 % 984,7 hPa 0,6 l/m 39,9 km/h (6 Bft) S 190 0 min
03.01.2018 05:15 11,2 C 10,7 C 7,9 C 96 % 95 % 984,7 hPa 0,0 l/m 39,9 km/h (6 Bft) S 190 0 min
03.01.2018 05:20 11,2 C 10,3 C 7,9 C 96 % 89 % 984,7 hPa 0,0 l/m 39,9 km/h (6 Bft) S 190 0 min
03.01.2018 05:25 9,7 C 9,8 C 7,9 C 86 % 86 % 984,7 hPa 3,8 l/m 61,2 km/h (7 Bft) W-NW 295 0 min
03.01.2018 05:30 9,5 C 9,7 C 7,9 C 86 % 84 % 984,7 hPa 0,0 l/m 61,2 km/h (7 Bft) NW 310 0 min
03.01.2018 05:35 9,5 C 9,8 C 7,9 C 86 % 81 % 984,7 hPa 0,0 l/m 61,2 km/h (7 Bft) NW 310 0 min
03.01.2018 05:40 9,8 C 9,8 C 7,9 C 82 % 81 % 985,7 hPa 0,0 l/m 28,6 km/h (5 Bft) W-NW 285 0 min
03.01.2018 05:45 10,2 C 10,0 C 7,9 C 82 % 81 % 985,7 hPa 0,0 l/m 30,2 km/h (5 Bft) NW 325 0 min
03.01.2018 05:50 10,2 C 10,0 C 7,9 C 81 % 81 % 985,7 hPa 0,0 l/m 33,7 km/h (5 Bft) W 265 0 min
03.01.2018 05:55 10,3 C 10,1 C 7,9 C 81 % 82 % 983,7 hPa 0,0 l/m 33,7 km/h (5 Bft) S-SO 165 0 min
03.01.2018 06:00 10,2 C 10,1 C 7,9 C 82 % 81 % 983,7 hPa 0,0 l/m 19,4 km/h (3 Bft) W-SW 240 0 min
03.01.2018 06:05 10,1 C 9,9 C 7,9 C 82 % 82 % 983,7 hPa 0,0 l/m 25,4 km/h (4 Bft) SW 220 0 min
03.01.2018 06:10 10,0 C 9,9 C 7,9 C 83 % 82 % 983,7 hPa 0,0 l/m 22,4 km/h (4 Bft) W-SW 240 0 min
03.01.2018 06:15 10,0 C 9,9 C 7,9 C 83 % 83 % 983,7 hPa 0,0 l/m 24,2 km/h (4 Bft) SW 235 0 min
03.01.2018 06:20 10,1 C 9,9 C 7,9 C 84 % 84 % 983,7 hPa 0,0 l/m 26,3 km/h (4 Bft) SW 235 0 min
03.01.2018 06:25 10,0 C 9,8 C 7,9 C 85 % 84 % 984,7 hPa 0,0 l/m 30,5 km/h (5 Bft) W-NW 290 0 min
03.01.2018 06:30 10,0 C 9,8 C 7,9 C 85 % 84 % 984,7 hPa 0,0 l/m 30,5 km/h (5 Bft) W-NW 290 0 min
03.01.2018 06:35 10,0 C 9,9 C 7,9 C 85 % 83 % 984,7 hPa 0,0 l/m 29,8 km/h (5 Bft) W 265 0 min
03.01.2018 06:40 10,2 C 9,9 C 7,9 C 84 % 83 % 985,7 hPa 0,0 l/m 30,2 km/h (5 Bft) W-NW 290 0 min
03.01.2018 06:45 9,9 C 9,8 C 7,9 C 84 % 84 % 985,7 hPa 0,0 l/m 21,8 km/h (4 Bft) SW 220 0 min
03.01.2018 06:50 9,9 C 9,8 C 7,9 C 84 % 84 % 985,7 hPa 0,0 l/m 26,3 km/h (4 Bft) W 260 0 min
03.01.2018 06:55 9,9 C 9,8 C 7,9 C 84 % 84 % 985,7 hPa 0,0 l/m 26,3 km/h (4 Bft) W 260 0 min
03.01.2018 07:00 9,8 C 9,7 C 7,9 C 86 % 86 % 985,7 hPa 0,0 l/m 30,5 km/h (5 Bft) W-SW 255 0 min
03.01.2018 07:05 9,7 C 9,6 C 7,9 C 87 % 86 % 985,7 hPa 0,0 l/m 27,8 km/h (5 Bft) SW 225 0 min
03.01.2018 07:10 9,6 C 9,5 C 7,9 C 88 % 86 % 984,7 hPa 0,0 l/m 28,6 km/h (5 Bft) W-NW 295 0 min
03.01.2018 07:15 9,7 C 9,5 C 7,9 C 87 % 86 % 984,7 hPa 0,0 l/m 30,5 km/h (5 Bft) W 260 0 min
03.01.2018 07:20 9,7 C 9,6 C 7,9 C 87 % 85 % 984,7 hPa 0,0 l/m 27,1 km/h (5 Bft) W 270 0 min
03.01.2018 07:25 9,8 C 9,6 C 7,9 C 85 % 85 % 984,7 hPa 0,0 l/m 28,2 km/h (5 Bft) SW 230 0 min
03.01.2018 07:30 9,7 C 9,6 C 7,9 C 86 % 84 % 984,7 hPa 0,0 l/m 25,4 km/h (4 Bft) W-NW 285 0 min
03.01.2018 07:35 9,7 C 9,6 C 7,9 C 86 % 84 % 984,7 hPa 0,0 l/m 25,4 km/h (4 Bft) W-NW 285 0 min
03.01.2018 07:40 9,9 C 9,7 C 7,9 C 83 % 83 % 983,7 hPa 0,0 l/m 25,4 km/h (4 Bft) SW 230 0 min
03.01.2018 07:45 9,9 C 9,8 C 7,9 C 82 % 81 % 983,7 hPa 0,0 l/m 31,3 km/h (5 Bft) W-NW 290 0 min
03.01.2018 07:50 9,9 C 9,8 C 7,9 C 81 % 80 % 983,7 hPa 0,0 l/m 31,7 km/h (5 Bft) W-SW 245 0 min
03.01.2018 07:55 9,7 C 9,7 C 7,9 C 82 % 81 % 984,7 hPa 0,0 l/m 18,2 km/h (3 Bft) W 270 0 min
03.01.2018 08:00 9,8 C 9,6 C 7,9 C 81 % 82 % 984,7 hPa 0,0 l/m 22,4 km/h (4 Bft) W-SW 250 0 min
03.01.2018 08:05 9,7 C 9,5 C 7,9 C 81 % 82 % 984,7 hPa 0,0 l/m 19,4 km/h (3 Bft) SW 215 0 min
03.01.2018 08:10 7,0 C 9,1 C 7,9 C 85 % 81 % 983,7 hPa 3,8 l/m 71,7 km/h (8 Bft) N-NW 330 0 min
03.01.2018 08:15 7,0 C 6,7 C 7,9 C 85 % 83 % 983,7 hPa 0,0 l/m 71,7 km/h (8 Bft) N-NW 330 0 min
03.01.2018 08:20 7,0 C 6,4 C 7,9 C 85 % 87 % 983,7 hPa 0,0 l/m 71,7 km/h (8 Bft) N-NW 330 0 min
03.01.2018 08:25 7,0 C 6,3 C 7,9 C 85 % 88 % 984,7 hPa 0,0 l/m 71,7 km/h (8 Bft) N-NW 330 0 min
03.01.2018 08:30 6,2 C 6,4 C 7,9 C 91 % 88 % 984,7 hPa 1,5 l/m 32,5 km/h (5 Bft) NW 305 0 min
03.01.2018 08:35 6,2 C 6,6 C 7,9 C 91 % 87 % 984,7 hPa 0,0 l/m 32,1 km/h (5 Bft) W 270 0 min
03.01.2018 08:40 6,4 C 6,7 C 7,9 C 89 % 86 % 985,7 hPa 0,0 l/m 27,4 km/h (5 Bft) S-SW 195 0 min
03.01.2018 08:45 6,4 C 6,7 C 7,9 C 89 % 86 % 985,7 hPa 0,0 l/m 27,4 km/h (5 Bft) S-SW 195 0 min
03.01.2018 08:50 6,5 C 6,8 C 7,9 C 88 % 85 % 985,7 hPa 0,0 l/m 30,9 km/h (5 Bft) NW 305 0 min
03.01.2018 08:55 6,5 C 6,9 C 7,9 C 89 % 85 % 985,7 hPa 0,0 l/m 32,5 km/h (5 Bft) S 180 0 min
03.01.2018 09:00 6,6 C 7,0 C 7,9 C 88 % 85 % 985,7 hPa 0,0 l/m 26,3 km/h (4 Bft) SW 215 0 min
03.01.2018 09:05 6,7 C 7,0 C 7,9 C 88 % 85 % 985,7 hPa 0,0 l/m 37,1 km/h (5 Bft) W-NW 300 0 min
03.01.2018 09:10 6,9 C 7,1 C 7,9 C 87 % 85 % 985,7 hPa 0,0 l/m 37,5 km/h (5 Bft) W-NW 300 0 min
03.01.2018 09:15 6,8 C 7,1 C 7,9 C 88 % 85 % 985,7 hPa 0,0 l/m 28,6 km/h (5 Bft) W-NW 295 0 min
03.01.2018 09:20 6,8 C 7,1 C 7,9 C 88 % 85 % 985,7 hPa 0,0 l/m 28,6 km/h (5 Bft) W-NW 295 0 min
03.01.2018 09:25 6,8 C 7,1 C 7,9 C 88 % 85 % 986,7 hPa 0,0 l/m 28,6 km/h (5 Bft) W-NW 295 0 min
03.01.2018 09:30 6,8 C 7,0 C 7,9 C 88 % 85 % 986,7 hPa 0,0 l/m 28,6 km/h (5 Bft) W-NW 295 0 min
03.01.2018 09:35 6,8 C 7,0 C 7,9 C 88 % 84 % 986,7 hPa 0,0 l/m 28,6 km/h (5 Bft) W-NW 295 0 min
03.01.2018 09:40 6,8 C 7,1 C 7,9 C 88 % 84 % 985,7 hPa 0,0 l/m 28,6 km/h (5 Bft) W-NW 295 0 min
03.01.2018 09:45 7,1 C 7,1 C 7,9 C 86 % 85 % 985,7 hPa 0,0 l/m 25,4 km/h (4 Bft) W-NW 285 0 min
03.01.2018 09:50 7,2 C 7,2 C 7,9 C 86 % 84 % 985,7 hPa 0,0 l/m 25,4 km/h (4 Bft) NW 315 0 min
03.01.2018 09:55 7,2 C 7,4 C 7,9 C 86 % 82 % 985,7 hPa 0,0 l/m 32,1 km/h (5 Bft) SW 215 0 min
03.01.2018 10:00 7,2 C 7,6 C 7,9 C 86 % 80 % 985,7 hPa 0,0 l/m 32,1 km/h (5 Bft) SW 215 0 min
03.01.2018 10:05 7,7 C 7,8 C 7,9 C 80 % 79 % 985,7 hPa 0,3 l/m 44,1 km/h (6 Bft) N-NW 345 0 min
03.01.2018 10:10 7,9 C 7,8 C 7,9 C 78 % 78 % 986,7 hPa 0,0 l/m 44,1 km/h (6 Bft) W 275 0 min
03.01.2018 10:15 7,9 C 7,9 C 7,9 C 79 % 78 % 986,7 hPa 0,0 l/m 27,8 km/h (5 Bft) W 260 4 min
03.01.2018 10:20 8,0 C 7,9 C 7,9 C 79 % 78 % 986,7 hPa 0,0 l/m 27,1 km/h (5 Bft) W-NW 290 3 min
03.01.2018 10:25 8,0 C 7,9 C 7,9 C 79 % 80 % 986,7 hPa 0,0 l/m 27,1 km/h (5 Bft) W-NW 290 0 min
03.01.2018 10:30 7,5 C 7,6 C 7,9 C 80 % 80 % 986,7 hPa 0,0 l/m 48,0 km/h (6 Bft) W-NW 300 0 min
03.01.2018 10:35 7,5 C 7,6 C 7,9 C 80 % 80 % 986,7 hPa 0,0 l/m 48,0 km/h (6 Bft) W-NW 300 0 min
03.01.2018 10:40 7,7 C 7,8 C 7,9 C 81 % 81 % 986,7 hPa 0,3 l/m 46,4 km/h (6 Bft) SW 220 5 min
03.01.2018 10:45 7,8 C 7,8 C 7,9 C 81 % 81 % 986,7 hPa 0,0 l/m 33,7 km/h (5 Bft) N-NW 335 5 min
03.01.2018 10:50 7,9 C 7,8 C 7,9 C 81 % 80 % 986,7 hPa 0,0 l/m 41,4 km/h (6 Bft) N 10 3 min
03.01.2018 10:55 7,7 C 7,8 C 7,9 C 80 % 79 % 987,7 hPa 0,0 l/m 33,3 km/h (5 Bft) W-NW 285 3 min
03.01.2018 11:00 7,9 C 7,8 C 7,9 C 79 % 79 % 987,7 hPa 0,0 l/m 44,1 km/h (6 Bft) N-NW 335 4 min
03.01.2018 11:05 7,8 C 7,8 C 7,9 C 79 % 79 % 987,7 hPa 0,0 l/m 34,4 km/h (5 Bft) W-NW 285 0 min
03.01.2018 11:10 7,9 C 7,8 C 7,9 C 78 % 79 % 987,7 hPa 0,0 l/m 29,4 km/h (5 Bft) W-NW 290 0 min
03.01.2018 11:15 7,9 C 7,9 C 7,9 C 77 % 77 % 987,7 hPa 0,0 l/m 33,3 km/h (5 Bft) W 260 0 min
03.01.2018 11:20 8,0 C 8,0 C 7,9 C 76 % 77 % 987,7 hPa 0,0 l/m 34,0 km/h (5 Bft) W 265 0 min
03.01.2018 11:25 8,1 C 8,0 C 7,9 C 76 % 77 % 987,7 hPa 0,0 l/m 34,8 km/h (5 Bft) W-SW 245 0 min
03.01.2018 11:30 8,2 C 8,1 C 7,9 C 75 % 76 % 987,7 hPa 0,0 l/m 34,4 km/h (5 Bft) S 175 0 min
03.01.2018 11:35 8,2 C 8,1 C 7,9 C 75 % 76 % 987,7 hPa 0,0 l/m 27,4 km/h (5 Bft) N-NW 340 0 min
03.01.2018 11:40 8,2 C 8,0 C 7,9 C 74 % 76 % 988,7 hPa 0,0 l/m 35,2 km/h (5 Bft) NW 325 0 min
03.01.2018 11:45 8,0 C 8,0 C 7,9 C 76 % 77 % 988,7 hPa 0,0 l/m 27,4 km/h (5 Bft) NW 315 0 min
03.01.2018 11:50 8,0 C 8,0 C 7,9 C 76 % 76 % 988,7 hPa 0,0 l/m 42,6 km/h (6 Bft) NW 305 0 min
03.01.2018 11:55 7,9 C 8,0 C 7,9 C 76 % 77 % 987,7 hPa 0,0 l/m 28,6 km/h (5 Bft) N 350 0 min
03.01.2018 12:00 7,8 C 8,0 C 7,9 C 77 % 77 % 987,7 hPa 0,0 l/m 29,0 km/h (5 Bft) W-NW 285 0 min
03.01.2018 12:05 7,8 C 7,8 C 7,9 C 78 % 79 % 987,7 hPa 0,0 l/m 28,6 km/h (5 Bft) SW 215 0 min
03.01.2018 12:10 7,5 C 7,8 C 7,9 C 80 % 79 % 988,7 hPa 0,0 l/m 43,7 km/h (6 Bft) W 270 0 min
03.01.2018 12:15 7,2 C 7,5 C 7,9 C 83 % 81 % 988,7 hPa 0,0 l/m 33,3 km/h (5 Bft) SO 145 0 min
03.01.2018 12:20 7,2 C 7,5 C 7,9 C 83 % 81 % 988,7 hPa 0,0 l/m 32,9 km/h (5 Bft) W 270 0 min
03.01.2018 12:25 7,2 C 7,4 C 7,9 C 83 % 82 % 988,7 hPa 0,0 l/m 30,2 km/h (5 Bft) SW 225 0 min
03.01.2018 12:30 7,2 C 7,3 C 7,9 C 83 % 83 % 988,7 hPa 0,0 l/m 30,2 km/h (5 Bft) SW 225 0 min
03.01.2018 12:35 7,0 C 7,3 C 7,9 C 85 % 83 % 988,7 hPa 0,0 l/m 34,0 km/h (5 Bft) W 280 0 min
03.01.2018 12:40 7,0 C 7,2 C 7,9 C 85 % 84 % 988,7 hPa 0,0 l/m 34,0 km/h (5 Bft) W 280 0 min
03.01.2018 12:45 7,1 C 7,2 C 7,9 C 85 % 84 % 988,7 hPa 0,0 l/m 37,5 km/h (5 Bft) NW 325 0 min
03.01.2018 12:50 7,0 C 7,2 C 7,9 C 86 % 85 % 988,7 hPa 0,0 l/m 35,6 km/h (5 Bft) NW 315 0 min
03.01.2018 12:55 7,0 C 7,1 C 7,9 C 86 % 85 % 989,7 hPa 0,3 l/m 36,4 km/h (5 Bft) W-NW 300 0 min
03.01.2018 13:00 6,9 C 7,1 C 7,9 C 87 % 85 % 989,7 hPa 0,0 l/m 40,2 km/h (6 Bft) W-NW 295 0 min
03.01.2018 13:05 6,9 C 7,1 C 7,9 C 87 % 85 % 989,7 hPa 0,0 l/m 40,2 km/h (6 Bft) W-NW 295 0 min
03.01.2018 13:10 6,9 C 7,1 C 7,9 C 87 % 85 % 989,7 hPa 0,0 l/m 36,8 km/h (5 Bft) S-SW 210 0 min
03.01.2018 13:15 6,8 C 7,1 C 7,9 C 87 % 86 % 989,7 hPa 0,0 l/m 41,4 km/h (6 Bft) NW 315 0 min
03.01.2018 13:20 6,8 C 7,1 C 7,9 C 87 % 85 % 989,7 hPa 0,0 l/m 41,4 km/h (6 Bft) NW 315 0 min
03.01.2018 13:25 6,9 C 7,0 C 7,9 C 87 % 86 % 989,7 hPa 0,0 l/m 34,4 km/h (5 Bft) O 95 0 min
03.01.2018 13:30 6,9 C 7,0 C 7,9 C 87 % 86 % 989,7 hPa 0,0 l/m 32,5 km/h (5 Bft) W 260 0 min
03.01.2018 13:35 6,9 C 7,0 C 7,9 C 87 % 86 % 989,7 hPa 0,3 l/m 33,3 km/h (5 Bft) W-SW 245 0 min
03.01.2018 13:40 6,8 C 7,0 C 7,9 C 88 % 86 % 990,7 hPa 0,0 l/m 31,7 km/h (5 Bft) W-SW 255 0 min
03.01.2018 13:45 6,8 C 6,9 C 7,9 C 88 % 87 % 990,7 hPa 0,0 l/m 31,7 km/h (5 Bft) W-SW 255 0 min
03.01.2018 13:50 6,8 C 7,0 C 7,9 C 88 % 87 % 990,7 hPa 0,0 l/m 31,7 km/h (5 Bft) W-SW 255 0 min
03.01.2018 13:55 6,8 C 7,0 C 7,9 C 88 % 87 % 989,7 hPa 0,0 l/m 31,7 km/h (5 Bft) W-SW 255 0 min
03.01.2018 14:00 7,0 C 7,1 C 7,9 C 88 % 87 % 989,7 hPa 0,3 l/m 46,4 km/h (6 Bft) N 0 0 min
03.01.2018 14:05 7,1 C 7,1 C 7,9 C 87 % 85 % 989,7 hPa 0,0 l/m 39,1 km/h (6 Bft) W-NW 300 0 min
03.01.2018 14:10 7,1 C 7,2 C 7,9 C 87 % 85 % 989,7 hPa 0,0 l/m 44,1 km/h (6 Bft) W-NW 290 0 min
03.01.2018 14:15 7,1 C 7,2 C 7,9 C 87 % 85 % 989,7 hPa 0,0 l/m 31,7 km/h (5 Bft) W-NW 295 0 min
03.01.2018 14:20 7,3 C 7,3 C 7,9 C 87 % 86 % 989,7 hPa 0,0 l/m 39,5 km/h (6 Bft) W-NW 295 0 min
03.01.2018 14:25 7,3 C 7,4 C 7,9 C 87 % 86 % 990,7 hPa 0,0 l/m 39,5 km/h (6 Bft) W-NW 295 0 min
03.01.2018 14:30 7,4 C 7,5 C 7,9 C 86 % 85 % 990,7 hPa 0,0 l/m 36,8 km/h (5 Bft) S-SO 155 0 min
03.01.2018 14:35 7,4 C 7,5 C 7,9 C 86 % 85 % 990,7 hPa 0,0 l/m 31,7 km/h (5 Bft) W 265 0 min
03.01.2018 14:40 7,3 C 7,6 C 7,9 C 86 % 85 % 990,7 hPa 0,3 l/m 28,6 km/h (5 Bft) W-SW 240 0 min
03.01.2018 14:45 7,3 C 7,6 C 7,9 C 86 % 84 % 990,7 hPa 0,0 l/m 28,6 km/h (5 Bft) W-SW 240 0 min
03.01.2018 14:50 7,5 C 7,6 C 7,9 C 85 % 83 % 990,7 hPa 0,0 l/m 39,5 km/h (6 Bft) W 270 0 min
03.01.2018 14:55 7,6 C 7,6 C 7,9 C 84 % 84 % 991,7 hPa 0,0 l/m 36,8 km/h (5 Bft) W-NW 300 0 min
03.01.2018 15:00 7,6 C 7,7 C 7,9 C 84 % 83 % 991,7 hPa 0,0 l/m 29,0 km/h (5 Bft) S-SW 205 0 min
03.01.2018 15:05 7,6 C 7,9 C 7,9 C 84 % 82 % 991,7 hPa 0,0 l/m 30,9 km/h (5 Bft) SO 145 0 min
03.01.2018 15:10 8,0 C 8,0 C 7,9 C 81 % 81 % 991,7 hPa 0,0 l/m 44,5 km/h (6 Bft) NW 310 0 min
03.01.2018 15:15 8,3 C 8,2 C 7,9 C 79 % 79 % 991,7 hPa 0,0 l/m 49,9 km/h (7 Bft) NW 305 0 min
03.01.2018 15:20 8,4 C 8,3 C 7,9 C 78 % 79 % 991,7 hPa 0,0 l/m 43,7 km/h (6 Bft) S 180 0 min
03.01.2018 15:25 8,4 C 8,6 C 7,9 C 78 % 76 % 991,7 hPa 0,0 l/m 34,0 km/h (5 Bft) S 170 0 min
03.01.2018 15:30 8,5 C 8,5 C 7,9 C 77 % 77 % 991,7 hPa 0,0 l/m 41,0 km/h (6 Bft) W 275 0 min
03.01.2018 15:35 8,6 C 8,6 C 7,9 C 76 % 76 % 991,7 hPa 0,0 l/m 41,8 km/h (6 Bft) NW 310 0 min
03.01.2018 15:40 8,6 C 8,6 C 7,9 C 76 % 77 % 991,7 hPa 0,0 l/m 32,1 km/h (5 Bft) W-NW 300 0 min
03.01.2018 15:45 8,4 C 8,4 C 7,9 C 78 % 78 % 991,7 hPa 0,0 l/m 36,4 km/h (5 Bft) S-SW 200 0 min
03.01.2018 15:50 8,5 C 8,5 C 7,9 C 77 % 77 % 991,7 hPa 0,0 l/m 34,8 km/h (5 Bft) W-NW 300 0 min
03.01.2018 15:55 8,2 C 8,4 C 7,9 C 79 % 78 % 991,7 hPa 0,0 l/m 34,8 km/h (5 Bft) N-NW 340 0 min
03.01.2018 16:00 8,2 C 8,3 C 7,9 C 79 % 79 % 991,7 hPa 0,0 l/m 34,8 km/h (5 Bft) N-NW 340 0 min
03.01.2018 16:05 8,0 C 8,1 C 7,9 C 80 % 80 % 991,7 hPa 0,0 l/m 35,6 km/h (5 Bft) NW 305 0 min
03.01.2018 16:10 7,8 C 8,0 C 7,9 C 82 % 81 % 992,7 hPa 0,0 l/m 28,6 km/h (5 Bft) NW 305 0 min
03.01.2018 16:15 7,8 C 8,0 C 7,9 C 82 % 82 % 992,7 hPa 0,0 l/m 28,6 km/h (5 Bft) NW 305 0 min
03.01.2018 16:20 7,6 C 7,9 C 7,9 C 84 % 82 % 992,7 hPa 0,0 l/m 30,2 km/h (5 Bft) SW 235 0 min
03.01.2018 16:25 8,0 C 8,0 C 7,9 C 81 % 80 % 993,7 hPa 0,3 l/m 43,3 km/h (6 Bft) W-NW 295 0 min
03.01.2018 16:30 8,0 C 8,0 C 7,9 C 81 % 80 % 993,7 hPa 0,0 l/m 38,3 km/h (6 Bft) W-SW 255 0 min
03.01.2018 16:35 8,3 C 8,2 C 7,9 C 79 % 79 % 993,7 hPa 0,0 l/m 36,0 km/h (5 Bft) NW 305 0 min
03.01.2018 16:40 8,1 C 8,1 C 7,9 C 80 % 80 % 993,7 hPa 0,0 l/m 35,6 km/h (5 Bft) W-SW 255 0 min
03.01.2018 16:45 7,9 C 8,0 C 7,9 C 82 % 80 % 993,7 hPa 0,0 l/m 36,0 km/h (5 Bft) W-SW 255 0 min
03.01.2018 16:50 7,7 C 7,8 C 7,9 C 83 % 82 % 993,7 hPa 0,0 l/m 25,4 km/h (4 Bft) W-SW 240 0 min
03.01.2018 16:55 7,7 C 7,7 C 7,9 C 84 % 83 % 993,7 hPa 0,0 l/m 43,3 km/h (6 Bft) O-SO 115 0 min
03.01.2018 17:00 7,6 C 7,7 C 7,9 C 85 % 83 % 993,7 hPa 0,0 l/m 31,3 km/h (5 Bft) N 5 0 min
03.01.2018 17:05 7,6 C 7,6 C 7,9 C 85 % 84 % 993,7 hPa 0,0 l/m 31,3 km/h (5 Bft) N 5 0 min
03.01.2018 17:10 7,6 C 7,6 C 7,9 C 85 % 83 % 993,7 hPa 0,0 l/m 23,0 km/h (4 Bft) W-SW 240 0 min
03.01.2018 17:15 7,6 C 7,7 C 7,9 C 85 % 83 % 993,7 hPa 0,0 l/m 23,0 km/h (4 Bft) W-SW 240 0 min
03.01.2018 17:20 8,0 C 7,8 C 7,9 C 81 % 82 % 993,7 hPa 0,0 l/m 28,2 km/h (5 Bft) NW 325 0 min
03.01.2018 17:25 8,3 C 8,1 C 7,9 C 79 % 79 % 993,7 hPa 0,0 l/m 30,2 km/h (5 Bft) NW 320 0 min
03.01.2018 17:30 8,5 C 8,2 C 7,9 C 77 % 78 % 993,7 hPa 0,0 l/m 28,6 km/h (5 Bft) W-SW 255 0 min
03.01.2018 17:35 8,5 C 8,3 C 7,9 C 77 % 78 % 993,7 hPa 0,0 l/m 28,6 km/h (5 Bft) W-SW 255 0 min
03.01.2018 17:40 8,4 C 8,3 C 7,9 C 78 % 78 % 994,7 hPa 0,0 l/m 26,0 km/h (4 Bft) N-NW 335 0 min
03.01.2018 17:45 8,5 C 8,4 C 7,9 C 77 % 78 % 994,7 hPa 0,0 l/m 33,3 km/h (5 Bft) W-SW 240 0 min
03.01.2018 17:50 8,4 C 8,3 C 7,9 C 78 % 78 % 994,7 hPa 0,0 l/m 29,8 km/h (5 Bft) W-SW 250 0 min
03.01.2018 17:55 8,3 C 8,2 C 7,9 C 78 % 79 % 994,7 hPa 0,0 l/m 27,1 km/h (5 Bft) NW 325 0 min
03.01.2018 18:00 8,0 C 8,0 C 7,9 C 81 % 80 % 994,7 hPa 0,0 l/m 31,7 km/h (5 Bft) NW 305 0 min
03.01.2018 18:05 8,0 C 8,0 C 7,9 C 81 % 81 % 994,7 hPa 0,0 l/m 31,7 km/h (5 Bft) S 180 0 min
03.01.2018 18:10 7,8 C 7,9 C 7,9 C 82 % 81 % 994,7 hPa 0,0 l/m 35,2 km/h (5 Bft) W-NW 295 0 min
03.01.2018 18:15 7,8 C 7,9 C 7,9 C 83 % 81 % 994,7 hPa 0,0 l/m 32,5 km/h (5 Bft) N-NO 20 0 min
03.01.2018 18:20 7,8 C 7,8 C 7,9 C 83 % 82 % 994,7 hPa 0,0 l/m 29,4 km/h (5 Bft) S-SW 210 0 min
03.01.2018 18:25 8,0 C 7,9 C 7,9 C 82 % 82 % 994,7 hPa 0,0 l/m 32,1 km/h (5 Bft) N 350 0 min
03.01.2018 18:30 8,1 C 8,0 C 7,9 C 81 % 81 % 994,7 hPa 0,0 l/m 30,9 km/h (5 Bft) NW 320 0 min
03.01.2018 18:35 8,1 C 8,0 C 7,9 C 81 % 80 % 994,7 hPa 0,0 l/m 31,7 km/h (5 Bft) NW 305 0 min
03.01.2018 18:40 8,1 C 8,0 C 7,9 C 81 % 80 % 994,7 hPa 0,0 l/m 27,8 km/h (5 Bft) N-NW 330 0 min
03.01.2018 18:45 8,2 C 8,1 C 7,9 C 80 % 80 % 994,7 hPa 0,0 l/m 32,9 km/h (5 Bft) S 185 0 min
03.01.2018 18:50 8,2 C 8,1 C 7,9 C 80 % 80 % 994,7 hPa 0,0 l/m 32,1 km/h (5 Bft) SW 230 0 min
03.01.2018 18:55 8,2 C 8,2 C 7,9 C 80 % 80 % 994,7 hPa 0,0 l/m 32,1 km/h (5 Bft) SW 230 0 min
03.01.2018 19:00 8,2 C 8,2 C 7,9 C 80 % 79 % 994,7 hPa 0,0 l/m 28,6 km/h (5 Bft) SW 215 0 min
03.01.2018 19:05 8,4 C 8,3 C 7,9 C 80 % 79 % 994,7 hPa 0,0 l/m 36,0 km/h (5 Bft) W-NW 295 0 min
03.01.2018 19:10 8,3 C 8,3 C 7,9 C 80 % 79 % 994,7 hPa 0,0 l/m 30,2 km/h (5 Bft) N 10 0 min
03.01.2018 19:15 8,3 C 8,2 C 7,9 C 80 % 80 % 994,7 hPa 0,0 l/m 26,7 km/h (4 Bft) NW 315 0 min
03.01.2018 19:20 8,3 C 8,3 C 7,9 C 80 % 80 % 994,7 hPa 0,0 l/m 28,2 km/h (5 Bft) W 265 0 min
03.01.2018 19:25 8,3 C 8,2 C 7,9 C 80 % 80 % 994,7 hPa 0,0 l/m 28,2 km/h (5 Bft) SW 230 0 min
03.01.2018 19:30 8,3 C 8,2 C 7,9 C 81 % 80 % 994,7 hPa 0,0 l/m 26,0 km/h (4 Bft) W-SW 255 0 min
03.01.2018 19:35 8,1 C 8,2 C 7,9 C 82 % 81 % 994,7 hPa 0,0 l/m 29,8 km/h (5 Bft) W-SW 250 0 min
03.01.2018 19:40 6,4 C 7,2 C 7,9 C 84 % 79 % 995,8 hPa 1,5 l/m 45,3 km/h (6 Bft) W-NW 295 0 min
03.01.2018 19:45 6,4 C 6,4 C 7,9 C 84 % 84 % 995,8 hPa 0,0 l/m 45,3 km/h (6 Bft) W-NW 295 0 min
03.01.2018 19:50 5,4 C 6,1 C 7,9 C 91 % 86 % 995,8 hPa 2,4 l/m 34,4 km/h (5 Bft) W-NW 300 0 min
03.01.2018 19:55 5,6 C 6,0 C 7,9 C 91 % 87 % 995,8 hPa 0,0 l/m 31,7 km/h (5 Bft) NW 310 0 min
03.01.2018 20:00 5,7 C 6,0 C 7,9 C 92 % 88 % 995,8 hPa 0,0 l/m 27,4 km/h (5 Bft) SW 220 0 min
03.01.2018 20:05 5,8 C 6,1 C 7,9 C 92 % 88 % 995,8 hPa 0,0 l/m 30,2 km/h (5 Bft) W 275 0 min
03.01.2018 20:10 6,9 C 6,7 C 7,9 C 88 % 87 % 994,8 hPa 0,0 l/m 34,0 km/h (5 Bft) NW 305 0 min
03.01.2018 20:15 7,1 C 6,9 C 7,9 C 88 % 86 % 994,8 hPa 0,0 l/m 26,7 km/h (4 Bft) W-NW 285 0 min
03.01.2018 20:20 7,2 C 7,3 C 7,9 C 87 % 85 % 994,7 hPa 0,0 l/m 38,7 km/h (6 Bft) N-NW 330 0 min
03.01.2018 20:25 7,4 C 7,5 C 7,9 C 86 % 84 % 995,8 hPa 0,3 l/m 33,7 km/h (5 Bft) W-NW 285 0 min
03.01.2018 20:30 7,4 C 7,5 C 7,9 C 85 % 83 % 995,8 hPa 0,0 l/m 32,5 km/h (5 Bft) W-SW 250 0 min
03.01.2018 20:35 7,1 C 7,3 C 7,9 C 85 % 82 % 995,8 hPa 0,0 l/m 31,7 km/h (5 Bft) O-SO 110 0 min
03.01.2018 20:40 7,1 C 7,2 C 7,9 C 85 % 82 % 996,8 hPa 0,0 l/m 31,7 km/h (5 Bft) O-SO 110 0 min
03.01.2018 20:45 6,9 C 7,1 C 7,9 C 85 % 83 % 996,8 hPa 0,0 l/m 33,3 km/h (5 Bft) W-SW 240 0 min
03.01.2018 20:50 6,9 C 7,1 C 7,9 C 86 % 83 % 996,8 hPa 0,0 l/m 26,3 km/h (4 Bft) SW 235 0 min
03.01.2018 20:55 6,9 C 7,1 C 7,9 C 86 % 84 % 995,8 hPa 0,0 l/m 29,4 km/h (5 Bft) W 275 0 min
03.01.2018 21:00 7,0 C 7,1 C 7,9 C 86 % 84 % 995,8 hPa 0,0 l/m 30,9 km/h (5 Bft) W-NW 300 0 min
03.01.2018 21:05 7,0 C 7,1 C 7,9 C 86 % 85 % 995,8 hPa 0,0 l/m 30,9 km/h (5 Bft) W-NW 300 0 min
03.01.2018 21:10 7,0 C 7,1 C 7,9 C 86 % 85 % 995,8 hPa 0,0 l/m 30,9 km/h (5 Bft) W-NW 300 0 min
03.01.2018 21:15 7,0 C 7,1 C 7,9 C 86 % 85 % 995,8 hPa 0,0 l/m 30,9 km/h (5 Bft) W-NW 300 0 min
03.01.2018 21:20 7,0 C 7,1 C 7,9 C 86 % 86 % 995,8 hPa 0,0 l/m 30,9 km/h (5 Bft) W-NW 300 0 min
03.01.2018 21:25 7,3 C 7,2 C 7,9 C 87 % 85 % 996,8 hPa 0,0 l/m 32,5 km/h (5 Bft) W-NW 285 0 min
03.01.2018 21:30 7,3 C 7,2 C 7,9 C 87 % 85 % 996,8 hPa 0,0 l/m 32,5 km/h (5 Bft) W-NW 285 0 min
03.01.2018 21:35 7,3 C 7,3 C 7,9 C 87 % 85 % 996,8 hPa 0,0 l/m 27,8 km/h (5 Bft) NW 305 0 min
03.01.2018 21:40 7,3 C 7,4 C 7,9 C 87 % 85 % 996,8 hPa 0,0 l/m 27,8 km/h (5 Bft) NW 305 0 min
03.01.2018 21:45 7,3 C 7,3 C 7,9 C 86 % 84 % 996,8 hPa 0,0 l/m 31,7 km/h (5 Bft) W-SW 245 0 min
03.01.2018 21:50 7,5 C 7,4 C 7,9 C 85 % 84 % 996,8 hPa 0,0 l/m 28,6 km/h (5 Bft) SW 220 0 min
03.01.2018 21:55 7,4 C 7,4 C 7,9 C 85 % 83 % 996,8 hPa 0,0 l/m 28,6 km/h (5 Bft) NW 315 0 min
03.01.2018 22:00 7,5 C 7,3 C 7,9 C 85 % 83 % 996,8 hPa 0,0 l/m 31,7 km/h (5 Bft) NW 310 0 min
03.01.2018 22:05 7,5 C 7,4 C 7,9 C 85 % 83 % 996,8 hPa 0,0 l/m 31,7 km/h (5 Bft) NW 310 0 min
03.01.2018 22:10 7,4 C 7,3 C 7,9 C 84 % 83 % 996,8 hPa 0,0 l/m 33,7 km/h (5 Bft) W-SW 245 0 min
03.01.2018 22:15 7,4 C 7,3 C 7,9 C 84 % 83 % 996,8 hPa 0,0 l/m 33,7 km/h (5 Bft) W-SW 245 0 min
03.01.2018 22:20 7,5 C 7,3 C 7,9 C 84 % 83 % 996,8 hPa 0,0 l/m 36,4 km/h (5 Bft) SW 225 0 min
03.01.2018 22:25 7,5 C 7,4 C 7,9 C 84 % 83 % 996,8 hPa 0,0 l/m 30,5 km/h (5 Bft) W 265 0 min
03.01.2018 22:30 7,4 C 7,4 C 7,9 C 85 % 83 % 996,8 hPa 0,0 l/m 30,9 km/h (5 Bft) W-SW 245 0 min
03.01.2018 22:35 7,4 C 7,3 C 7,9 C 85 % 84 % 996,8 hPa 0,0 l/m 30,9 km/h (5 Bft) W-SW 245 0 min
03.01.2018 22:40 7,4 C 7,4 C 7,9 C 85 % 84 % 996,8 hPa 0,0 l/m 32,5 km/h (5 Bft) N-NW 335 0 min
03.01.2018 22:45 7,4 C 7,4 C 7,9 C 85 % 84 % 996,8 hPa 0,0 l/m 27,4 km/h (5 Bft) SW 230 0 min
03.01.2018 22:50 7,4 C 7,4 C 7,9 C 85 % 84 % 996,8 hPa 0,0 l/m 27,4 km/h (5 Bft) SW 230 0 min
03.01.2018 22:55 7,4 C 7,3 C 7,9 C 85 % 84 % 996,8 hPa 0,0 l/m 27,4 km/h (5 Bft) SW 230 0 min
03.01.2018 23:00 7,4 C 7,3 C 7,9 C 85 % 85 % 996,8 hPa 0,0 l/m 27,4 km/h (5 Bft) SW 230 0 min
03.01.2018 23:05 7,4 C 7,3 C 7,9 C 85 % 85 % 996,8 hPa 0,0 l/m 27,4 km/h (5 Bft) SW 230 0 min
03.01.2018 23:10 7,4 C 7,3 C 7,9 C 85 % 85 % 995,8 hPa 0,0 l/m 27,4 km/h (5 Bft) SW 230 0 min
03.01.2018 23:15 7,4 C 7,2 C 7,9 C 85 % 85 % 995,8 hPa 0,0 l/m 27,4 km/h (5 Bft) SW 230 0 min
03.01.2018 23:20 7,3 C 7,2 C 7,9 C 86 % 85 % 995,8 hPa 0,0 l/m 32,5 km/h (5 Bft) S-SW 195 0 min
03.01.2018 23:25 7,2 C 7,2 C 7,9 C 87 % 85 % 996,8 hPa 0,0 l/m 24,2 km/h (4 Bft) W-SW 240 0 min
03.01.2018 23:30 7,1 C 7,1 C 7,9 C 87 % 85 % 996,8 hPa 0,0 l/m 27,4 km/h (5 Bft) W-SW 250 0 min
03.01.2018 23:35 7,2 C 7,2 C 7,9 C 86 % 84 % 996,8 hPa 0,0 l/m 27,4 km/h (5 Bft) SW 220 0 min
03.01.2018 23:40 7,5 C 7,3 C 7,9 C 84 % 83 % 996,8 hPa 0,0 l/m 30,5 km/h (5 Bft) W-NW 300 0 min
03.01.2018 23:45 7,5 C 7,4 C 7,9 C 84 % 83 % 996,8 hPa 0,0 l/m 30,5 km/h (5 Bft) W-NW 300 0 min
03.01.2018 23:50 7,5 C 7,5 C 7,9 C 84 % 82 % 996,8 hPa 0,0 l/m 30,5 km/h (5 Bft) W-NW 300 0 min
03.01.2018 23:55 7,8 C 7,6 C 7,9 C 82 % 81 % 996,8 hPa 0,0 l/m 25,4 km/h (4 Bft) NW 325 0 min
_ Min-Zeit 19:50 19:55 00:00 11:40 11:30 05:05 - 01:05 - - -
Minimum _ 5,4 C 6,0 C 5,1 C 74 % 76 % 983,7 hPa - 12,7 km/h (3 Bft) - - -
_ Max-Zeit 05:10 05:15 05:15 00:15 05:00 00:00 05:25 08:10 - - 10:40
Maximum _ 11,2 C 10,7 C 7,9 C 99 % 97 % 998,8 hPa 3,8 l/m 71,7 km/h
N-NW (8 Bft)
- - 5 min
Durchschnitt _ 7,9 C 7,9 C 7,3 C 87 % 85 % 990,9 hPa #27,1 l/m 31,5 km/h (5 Bft) W-NW - #27 min.